SCP
0 0 0 0 0 0 0 0 0 0 0 0 0 0 0 0 0 0 0 0 0 0 0 0 0 0 0 0 0 0 0 0 0 0 0 0 0 0 0 0 0 0 0 0
0 0 0 0 0 0 0 0 0 0 0 0 0 0 0 0 0 0 0 0 0 0 0 0 0 0 0 0 0 0 0 0 0 0 0 0 0 0 0 0 0 0 0 0
0 0 0 0 0 0 0 0 0 0 0 0 0 0 0 0 0 0 0 0 0 0 0 0 0 0 0 0 0 0 0 0 0 0 0 0 0 0 0 0 0 0 0 0
0 0 0 -0 -0 0 0 0 0 0 0 0 0 0 0 0 0 0 0 0 0 0 0 0 0 0 0 0 0 0 0 0 0 0 0 0 0 0 0 0 0 0 0 0
0 0 0 -0 -0 -0 0 0 0 0 0 0 0 0 0 0 0 0 0 0 0 0 0 0 0 0 0 0 0 0 0 0 0 0 0 0 0 0 0 0 0 0 0 0
0 0 0 0 0 0 0 0 0 0 0 0 0 0 0 0 0 0 0 0 0 0 0 0 0 0 0 0 0 0 0 0 0 0 0 0 0 0 0 0 0 0 0 0
0 0 0 0 0 -0 -0 -0 0 0 0 0 0 0 0 0 0 0 0 0 0 0 0 0 0 0 0 0 0 0 0 0 0 0 0 0 0 0 0 0 0 0 0 0
0 0 0 0 0 -0 -0 -0 0 0 0 0 0 0 0 0 0 0 0 0 0 0 0 0 0 0 0 0 0 0 0 0 0 0 0 0 0 0 0 0 0 0 0 0
0 0 0 0 0 -0 -0 -0 0 0 0 0 0 0 0 0 0 0 0 0 0 0 0 0 0 0 0 0 0 0 0 0 0 0 0 0 0 0 0 0 0 0 0 0
0 0 0 0 0 0 0 0 0 0 0 0 0 0 0 0 0 0 0 0 0 0 0 0 0 0 0 0 0 0 0 0 0 0 0 0 0 0 0 0 0 0 0 0
0 0 0 0 -0 -0 0 0 0 0 0 0 0 0 0 0 0 0 0 0 0 0 0 0 0 0 0 0 0 0 0 0 0 0 0 0 0 0 0 0 0 0 0 0
0 0 0 0 0 0 0 0 0 -0 0 0 0 0 0 0 0 0 0 0 0 0 0 0 0 0 0 0 0 0 0 0 0 0 0 0 0 0 0 0 0 0 0 0
0 0 0 0 0 0 0 0 0 -0 0 0 0 0 0 0 0 0 0 0 0 0 0 0 0 0 0 0 0 0 0 0 0 0 0 0 0 0 0 0 0 0 0 0
0 0 0 0 0 0 0 0 0 -0 -0 0 0 0 0 0 0 0 0 0 0 0 0 0 0 0 0 0 0 0 0 0 0 0 0 0 0 0 0 0 0 0 0 0
0 0 0 0 0 0 0 0 0 0 -0 0 0 0 0 0 0 0 0 0 0 0 0 0 0 0 0 0 0 0 0 0 0 0 0 0 0 0 0 0 0 0 0 0
0 0 0 0 0 0 0 0 0 0 0 0 0 0 0 0 0 0 0 0 0 0 0 0 0 0 0 0 0 0 0 0 0 0 0 0 0 0 0 0 0 0 0 0
0 0 0 0 0 0 0 0 0 0 0 0 0 0 0 0 0 0 0 0 0 0 0 0 0 0 0 0 0 0 0 0 0 0 0 0 0 0 0 0 0 0 0 0
0 0 0 0 0 0 0 0 0 0 0 0 0 0 0 0 0 0 0 0 0 0 0 0 0 0 0 0 0 0 0 0 0 0 0 0 0 0 0 0 0 0 0 0
0 0 0 0 0 0 0 0 0 0 0 0 0 0 0 0 0 0 0 0 0 0 0 0 0 0 0 0 0 0 0 0 0 0 0 0 0 0 0 0 0 0 0 0
0 0 0 0 0 0 0 0 0 0 0 0 0 0 0 0 0 0 0 0 0 0 0 0 0 0 0 0 0 0 0 0 0 0 0 0 0 0 0 0 0 0 0 0
0 0 0 0 0 0 0 0 0 0 0 0 0 0 0 0 0 0 0 0 0 0 0 0 0 0 0 0 0 0 0 0 0 0 0 0 0 0 0 0 0 0 0 0
0 0 0 0 0 0 0 0 0 0 0 0 0 0 0 0 0 0 0 0 0 0 0 0 0 0 0 0 0 0 0 0 0 0 0 0 0 0 0 0 0 0 0 0
0 0 0 0 0 0 0 0 0 0 0 0 0 0 0 0 0 0 0 0 0 0 0 0 0 0 0 0 0 0 0 0 0 0 0 0 0 0 0 0 0 0 0 0
0 0 0 0 0 0 0 0 0 0 0 0 0 0 0 0 0 0 0 0 0 0 0 0 0 0 0 0 0 0 0 0 0 0 0 0 0 0 0 0 0 0 0 0
0 0 0 0 0 0 0 0 0 0 0 0 0 0 0 0 0 0 0 0 0 0 0 0 0 0 0 0 0 0 0 0 0 0 0 0 0 0 0 0 0 0 0 0
0 0 0 0 0 0 0 0 0 0 0 0 0 0 0 0 0 0 0 0 0 0 0 0 0 0 0 0 0 0 0 0 0 0 0 0 0 0 0 0 0 0 0 0
0 0 0 0 0 0 0 0 0 0 0 0 0 0 0 0 0 0 0 0 0 0 0 0 0 0 0 0 0 0 0 0 0 0 0 0 0 -0 0 0 0 0 0 0
Wind_Speed
6 6 3 4 5 5 7 7 7 8 8 11 7 6 6 5 5 6 6 6 6 6 7 6 6 6 5 5 5 4 4 4 4 3 3 3 3 3 2 2 2 2 2 2
4 3 3 5 6 6 7 6 7 8 11 8 6 4 5 6 5 6 6 7 7 7 7 7 7 6 6 5 5 4 4 4 4 3 3 2 2 2 2 2 2 1 1 2
4 4 3 6 6 7 5 5 6 8 8 4 6 6 6 6 6 6 7 7 7 7 7 7 6 6 5 5 5 4 4 4 3 2 3 2 2 1 1 1 0 0 1 1
2 3 4 6 1 3 4 4 5 5 5 5 7 8 6 5 5 6 6 7 7 7 7 7 6 5 5 4 4 4 4 4 3 2 2 1 0 0 0 0 0 0 0 0
1 2 7 6 1 2 2 5 4 5 6 6 5 6 4 2 3 5 6 7 6 6 6 6 6 5 4 4 4 4 4 4 3 2 2 1 1 1 0 1 1 1 0 1
2 2 5 5 2 1 1 4 2 3 4 4 4 4 5 5 6 6 6 5 6 6 5 5 5 4 3 3 4 4 4 4 3 2 2 2 1 1 1 1 1 1 1 1
3 4 8 5 2 1 2 5 3 2 3 2 3 5 6 6 6 6 6 6 5 5 4 5 4 3 3 4 4 5 4 4 3 2 2 1 1 2 2 2 2 1 2 2
4 3 8 1 3 4 5 3 2 3 3 3 5 5 5 6 6 6 6 6 5 4 5 5 4 3 4 5 5 4 4 4 3 3 2 2 2 2 2 2 2 2 2 2
7 7 4 3 4 4 2 3 3 3 4 3 4 5 5 5 6 6 6 6 5 4 5 5 4 3 4 5 5 4 4 4 4 4 3 3 2 2 2 1 1 1 1 2
4 7 6 5 5 4 4 4 4 4 3 3 4 5 5 5 5 5 6 5 5 5 5 5 5 5 4 5 4 4 4 4 4 4 4 4 3 2 1 1 1 1 1 1
5 6 5 4 5 5 4 3 3 3 3 3 3 4 4 4 4 4 5 5 4 4 4 5 5 5 5 5 4 4 4 4 4 3 3 3 3 3 2 1 1 1 1 0
7 5 4 5 3 2 3 4 3 3 3 3 2 3 4 4 4 4 4 4 4 4 4 5 5 5 5 4 3 3 3 3 3 2 2 2 2 3 5 4 5 4 3 2
5 3 3 4 3 2 2 3 3 2 3 3 3 2 2 3 3 3 4 4 4 4 4 4 4 5 5 4 3 3 2 2 2 2 2 2 2 2 3 5 6 6 5 5
3 2 3 3 3 2 2 2 2 2 2 2 2 2 2 2 3 3 4 4 4 4 4 4 4 5 4 3 3 3 2 3 3 2 2 2 2 2 2 2 3 3 5 6
4 4 4 2 2 2 1 1 2 2 3 3 2 2 2 2 3 4 4 4 3 3 4 4 4 5 4 3 3 3 2 2 2 2 2 2 2 2 2 2 2 2 2 4
3 2 2 2 3 2 1 1 1 2 2 3 3 3 3 3 3 3 3 3 3 4 4 4 5 5 4 3 3 2 2 3 3 2 1 1 1 1 1 1 2 2 2 2
2 2 2 3 3 3 2 2 2 2 2 3 3 3 3 2 3 4 4 3 3 3 4 4 5 5 4 3 2 2 2 2 3 2 1 1 1 1 1 1 1 2 2 2
5 4 4 4 3 3 3 3 2 2 2 3 2 2 2 2 3 4 4 4 4 4 4 4 4 4 3 3 2 2 2 2 2 2 1 1 1 1 1 1 1 2 2 2
3 3 3 3 3 2 2 3 3 2 2 1 1 1 2 2 3 3 3 3 3 4 5 4 6 4 3 3 3 1 1 2 2 2 2 2 2 1 1 1 1 1 2 2
2 2 2 2 1 1 2 2 1 1 1 1 1 1 2 3 2 2 2 2 2 3 4 4 4 3 3 3 3 1 1 2 2 2 2 2 1 1 1 1 1 1 2 2
2 1 1 1 1 1 1 1 1 1 1 1 1 1 2 3 2 2 2 3 3 3 4 5 3 3 2 2 2 1 1 1 1 2 2 2 2 2 2 1 1 2 2 2
1 1 1 1 1 1 1 1 1 1 1 1 1 1 1 2 2 2 2 3 3 5 3 2 2 3 3 3 1 1 1 1 2 2 2 2 2 2 2 2 2 2 2 2
2 2 2 1 1 1 1 1 0 1 1 2 2 2 2 2 2 2 3 2 2 4 3 2 4 5 5 3 1 1 1 2 2 2 2 2 2 2 2 2 2 2 2 2
1 1 1 1 1 1 1 1 1 1 1 2 2 2 2 2 2 2 2 3 4 4 2 3 5 5 4 2 1 1 1 1 2 2 2 2 2 2 2 2 2 2 2 2
2 1 1 1 1 1 2 1 1 1 1 1 2 2 2 1 2 2 2 2 3 3 2 3 5 5 3 2 1 1 1 1 1 1 1 1 1 2 2 2 2 2 2 1
2 2 2 2 2 1 1 1 1 1 1 1 2 2 1 1 1 1 1 2 2 3 2 2 2 3 2 2 2 2 1 2 2 2 1 1 1 2 2 2 2 2 1 1
1 1 1 1 1 1 2 2 2 2 2 2 2 2 1 1 1 1 1 1 2 2 2 2 2 2 2 2 2 2 1 1 1 1 1 1 1 2 2 2 2 1 1 1
Wind_Direction
262 270 248 240 234 209 209 212 221 251 257 276 292 294 299 303 315 324 325 327 324 320 316 315 317 312 307 303 302 300 294 289 285 286 277 265 251 241 242 242 245 238 250 260
283 281 262 270 255 225 232 235 245 268 274 278 297 304 309 305 308 314 314 315 315 315 314 313 312 311 311 307 307 307 294 283 286 297 292 270 259 246 238 243 240 224 237 252
279 319 335 280 242 205 214 217 204 234 258 309 317 310 301 299 302 299 303 306 307 307 303 303 304 305 304 302 305 307 303 296 292 294 296 286 265 241 233 235 194 223 261 255
288 14 260 255 299 190 215 250 224 249 281 295 293 298 292 283 290 297 302 304 307 309 308 307 306 305 308 315 311 308 313 314 308 304 303 314 331 239 248 95 91 39 299 353
160 257 280 295 271 166 197 276 227 238 279 302 318 322 308 304 318 299 297 300 302 304 304 309 311 314 321 332 335 331 327 322 321 323 331 356 12 9 43 75 55 33 10 52
151 206 252 268 282 251 111 291 267 229 273 302 343 337 297 315 322 316 314 313 312 314 314 320 321 330 340 341 344 333 326 323 331 347 5 7 358 12 47 65 46 26 19 32
192 233 264 268 285 103 142 267 295 241 256 255 247 247 280 311 318 318 318 318 322 325 327 329 335 348 349 346 333 324 332 343 352 3 8 32 34 31 45 49 45 40 24 10
170 210 259 233 124 180 233 278 273 262 258 258 269 286 299 309 315 323 330 333 336 337 334 340 351 359 349 335 329 342 353 3 6 10 15 33 50 40 42 59 55 36 36 16
196 217 250 198 214 243 250 269 271 267 274 276 284 291 302 311 316 324 331 333 337 341 344 351 356 359 341 331 344 358 12 12 12 16 26 29 39 42 43 46 59 34 35 22
256 263 258 253 259 269 257 259 273 273 272 274 275 285 300 309 318 325 331 333 341 354 355 349 352 356 347 345 358 15 16 11 19 23 21 20 22 30 47 35 33 28 27 14
258 275 295 273 249 259 267 273 283 293 281 273 277 290 297 307 314 321 329 334 346 354 347 342 348 351 351 357 7 15 11 11 18 20 17 18 21 24 20 11 7 16 14 359
231 237 225 266 280 261 256 274 281 295 309 315 295 291 305 305 314 325 332 338 344 348 345 341 346 345 347 355 10 15 9 9 12 10 13 19 24 27 28 26 23 15 6 360
237 253 237 268 291 287 267 278 292 291 290 304 315 306 306 311 326 334 336 338 336 336 337 338 344 343 344 354 7 14 4 359 3 6 7 10 16 21 15 20 25 29 31 29
243 256 273 271 278 306 308 314 325 332 328 321 321 328 328 327 330 335 328 324 327 335 339 342 344 339 340 356 7 6 2 359 0 2 1 6 15 15 13 12 9 13 21 28
245 225 232 266 303 326 337 357 359 342 340 341 341 338 336 329 322 321 323 330 339 343 343 345 342 332 340 2 10 2 359 358 1 6 6 8 14 20 21 16 6 354 1 12
271 243 234 249 266 283 310 316 301 303 315 321 326 323 316 310 314 326 336 346 351 340 335 339 332 329 342 1 5 360 358 358 357 356 0 9 16 20 13 9 355 349 347 343
197 241 244 258 265 269 265 252 245 266 290 299 302 312 327 338 341 338 337 338 330 324 329 332 326 333 347 357 359 351 348 351 352 352 352 354 354 351 344 345 341 336 331 337
221 229 225 225 233 250 270 270 262 268 274 281 304 327 339 337 322 318 324 334 342 344 339 331 328 337 348 352 355 351 346 343 341 339 336 341 342 336 336 330 325 320 322 337
226 233 242 244 240 231 246 258 260 265 275 273 281 297 304 305 309 315 328 343 344 334 328 331 337 350 346 346 352 357 350 344 342 338 339 341 343 333 321 316 319 319 321 329
250 250 250 263 259 236 247 262 262 268 267 245 272 318 324 319 320 319 326 318 296 289 307 324 335 339 335 341 350 353 351 349 345 339 336 329 321 320 318 315 314 315 317 318
258 263 265 273 280 273 251 241 226 240 253 223 231 267 290 304 310 310 316 311 308 312 321 329 335 325 327 340 351 0 354 343 336 329 325 321 319 320 318 317 320 319 316 314
250 243 255 265 272 296 303 270 215 208 223 244 262 278 296 304 306 298 276 269 298 323 332 325 321 326 340 352 6 1 346 337 331 326 322 317 314 311 315 320 321 320 319 317
235 230 234 240 240 267 313 313 230 212 227 239 247 259 269 276 279 283 297 299 309 322 329 316 323 337 351 3 0 353 338 330 323 316 311 309 307 305 306 314 318 318 320 322
231 234 237 233 185 179 284 293 279 257 249 256 256 256 261 283 292 271 275 306 320 324 324 321 335 345 354 357 344 336 328 320 316 313 313 315 317 316 315 315 316 317 320 324
222 217 202 187 200 230 242 257 287 289 288 290 290 284 272 250 258 288 300 304 315 331 328 330 341 348 354 342 331 323 314 305 311 315 315 321 322 322 318 316 317 317 317 324
210 217 223 225 224 224 219 216 236 256 266 292 303 298 299 295 285 293 305 308 314 328 330 325 331 339 337 331 323 321 318 316 322 322 322 323 322 322 318 318 317 316 322 330
195 204 211 248 242 209 204 211 224 237 236 243 277 285 289 296 303 308 312 317 320 323 321 323 327 328 328 327 323 322 322 318 318 324 324 321 318 312 311 314 320 323 328 331